FW2316 Weather Reports


time (UTC)temp
C
wind
direction
speed
KPH
gust
KPH
rain 1hr
cm
rain 24hr
cm
rain mn
cm
humidity
%
barometer
mb
20260507142523 9 190 3.2 8.0 0.00 0.00 0.00 85 1022.2
20260507142020 9 190 1.6 9.7 0.00 0.00 0.00 86 1022.2
20260507141520 9 190 3.2 8.0 0.00 0.00 0.00 86 1022.2
20260507141020 9 190 0.0 6.4 0.00 0.00 0.00 86 1022.2
20260507140520 9 188 0.0 6.4 0.00 0.00 0.00 86 1022.1
20260507140019 9 188 1.6 6.4 0.00 0.00 0.00 86 1022.0
20260507135518 9 188 0.0 6.4 0.00 0.00 0.00 87 1021.8
20260507135017 9 188 0.0 6.4 0.00 0.00 0.00 87 1021.8
20260507134517 9 186 1.6 4.8 0.00 0.00 0.00 87 1021.8
20260507134015 9 186 1.6 4.8 0.00 0.00 0.00 87 1021.8
20260507133514 9 186 0.0 3.2 0.00 0.00 0.00 88 1021.8
20260507132513 9 186 0.0 4.8 0.00 0.00 0.00 89 1021.7
20260507132013 8 186 0.0 4.8 0.00 0.00 0.00 89 1021.7
20260507131512 8 186 0.0 1.6 0.00 0.00 0.00 89 1021.8
20260507131011 8 186 0.0 3.2 0.00 0.00 0.00 89 1021.7
20260507130512 8 186 0.0 1.6 0.00 0.00 0.00 89 1021.7
20260507130010 8 186 0.0 1.6 0.00 0.00 0.00 89 1021.8
20260507125511 8 186 0.0 3.2 0.00 0.00 0.00 89 1021.8
20260507125011 8 186 0.0 3.2 0.00 0.00 0.00 89 1021.8
20260507124509 8 186 0.0 4.8 0.00 0.00 0.00 89 1021.8
20260507124008 8 186 0.0 4.8 0.00 0.00 0.00 89 1021.9
20260507123508 8 186 0.0 1.6 0.00 0.00 0.00 89 1021.9
20260507122506 8 186 0.0 3.2 0.00 0.00 0.00 89 1022.0
20260507122006 8 186 0.0 3.2 0.00 0.00 0.00 89 1022.0
20260507121506 9 186 0.0 1.6 0.00 0.00 0.00 89 1022.1
20260507121006 9 186 0.0 1.6 0.00 0.00 0.00 89 1022.1
20260507120504 9 186 0.0 1.6 0.00 0.00 0.00 89 1022.2
20260507120005 9 186 0.0 1.6 0.00 0.00 0.00 88 1022.2
20260507115504 9 186 0.0 1.6 0.00 0.00 0.00 88 1022.3
20260507115002 9 186 0.0 3.2 0.00 0.00 0.00 88 1022.3
20260507114502 9 186 0.0 3.2 0.00 0.00 0.00 88 1022.4
20260507114004 9 186 0.0 0.0 0.00 0.00 0.00 88 1022.4
20260507113503 9 186 0.0 1.6 0.00 0.00 0.00 88 1022.4
20260507112502 9 186 0.0 1.6 0.00 0.00 0.00 88 1022.4
20260507112101 9 186 0.0 1.6 0.00 0.00 0.00 87 1022.3
20260507112001 9 186 0.0 3.2 0.00 0.00 0.00 87 1022.4
20260507111601 9 186 0.0 3.2 0.00 0.00 0.00 87 1022.4
20260507111059 9 186 0.0 1.6 0.00 0.00 0.00 86 1022.4
20260507110559 9 186 0.0 1.6 0.00 0.00 0.00 86 1022.5
20260507110103 9 186 0.0 3.2 0.00 0.00 0.00 85 1022.4
20260507105558 9 186 0.0 3.2 0.00 0.00 0.00 84 1022.6
20260507105058 9 186 0.0 3.2 0.00 0.00 0.00 84 1022.6
20260507104603 9 186 0.0 3.2 0.00 0.00 0.00 85 1022.5
20260507104057 10 186 0.0 4.8 0.00 0.00 0.00 85 1022.5
20260507103557 10 186 0.0 4.8 0.00 0.00 0.00 85 1022.5
20260507102557 10 186 0.0 4.8 0.00 0.00 0.00 85 1022.6
20260507102056 10 186 0.0 4.8 0.00 0.00 0.00 85 1022.6
20260507101556 10 186 0.0 3.2 0.00 0.00 0.00 84 1022.6
20260507101057 10 186 0.0 6.4 0.00 0.00 0.00 84 1022.6
20260507100554 10 186 0.0 6.4 0.00 0.00 0.00 84 1022.6
20260507100107 10 186 0.0 4.8 0.00 0.00 0.00 84 1022.5
20260507095555 10 186 0.0 4.8 0.00 0.00 0.00 85 1022.5
20260507095056 10 186 1.6 4.8 0.00 0.00 0.00 85 1022.5
20260507094553 10 186 1.6 4.8 0.00 0.00 0.00 85 1022.5
20260507094053 10 186 1.6 6.4 0.00 0.00 0.00 85 1022.5
20260507093552 10 186 0.0 6.4 0.00 0.00 0.00 85 1022.5
20260507092552 10 187 1.6 6.4 0.00 0.00 0.00 85 1022.5
20260507092051 10 188 1.6 6.4 0.00 0.00 0.00 85 1022.5
20260507091551 10 188 0.0 8.0 0.00 0.00 0.00 85 1022.6
20260507091050 10 188 1.6 8.0 0.00 0.00 0.00 85 1022.4
20260507090550 10 185 4.8 8.0 0.00 0.00 0.00 86 1022.4
20260507090056 10 187 1.6 8.0 0.00 0.00 0.00 87 1022.5
20260507085549 10 186 3.2 8.0 0.00 0.00 0.00 87 1022.5
20260507085051 10 186 3.2 8.0 0.00 0.00 0.00 87 1022.5
20260507084558 10 186 1.6 8.0 0.00 0.00 0.00 87 1022.5
20260507084049 10 185 1.6 8.0 0.00 0.00 0.00 88 1022.5
20260507083549 10 185 1.6 6.4 0.00 0.00 0.00 88 1022.5
20260507082547 10 184 1.6 9.7 0.00 0.00 0.00 88 1022.6
20260507082047 10 182 3.2 8.0 0.00 0.00 0.00 89 1022.6
20260507081548 10 180 1.6 8.0 0.00 0.00 0.00 90 1022.5
20260507081047 10 174 1.6 8.0 0.00 0.00 0.00 90 1022.6
20260507080549 10 170 4.8 8.0 0.00 0.00 0.00 90 1022.6
20260507080053 10 170 0.0 6.4 0.00 0.00 0.00 90 1022.6
20260507075547 10 170 1.6 8.0 0.00 0.00 0.00 90 1022.6
20260507075045 10 168 0.0 6.4 0.00 0.00 0.00 91 1022.7
20260507074546 10 169 1.6 8.0 0.00 0.00 0.00 90 1022.6
20260507074045 10 170 1.6 8.0 0.00 0.00 0.00 89 1022.6
20260507073544 10 174 1.6 6.4 0.00 0.00 0.00 89 1022.5
20260507072544 10 175 4.8 12.9 0.00 0.00 0.00 88 1022.5
20260507072043 11 175 4.8 14.5 0.00 0.00 0.00 87 1022.5
20260507071545 11 188 3.2 11.3 0.00 0.00 0.00 87 1022.5
20260507071042 11 173 6.4 11.3 0.00 0.00 0.00 86 1022.5
20260507070542 11 189 3.2 9.7 0.00 0.00 0.00 86 1022.5
20260507070059 11 189 3.2 9.7 0.00 0.00 0.00 86 1022.5
20260507065540 11 183 3.2 8.0 0.00 0.00 0.00 86 1022.4
20260507065041 11 187 1.6 9.7 0.00 0.00 0.00 86 1022.5
20260507064549 11 187 4.8 9.7 0.00 0.00 0.00 86 1022.4
20260507064041 11 200 3.2 8.0 0.00 0.00 0.00 86 1022.4
20260507063539 11 221 1.6 8.0 0.00 0.00 0.00 87 1022.5
20260507062541 11 227 0.0 11.3 0.00 0.00 0.00 87 1022.4
20260507062039 11 229 3.2 11.3 0.00 0.00 0.00 87 1022.5
20260507061539 11 270 1.6 8.0 0.00 0.00 0.00 87 1022.4
20260507061139 11 291 0.0 4.8 0.00 0.00 0.00 87 1022.4
20260507060541 11 295 1.6 4.8 0.00 0.00 0.00 87 1022.6
20260507060038 11 296 1.6 4.8 0.00 0.00 0.00 87 1022.5
20260507055538 11 299 0.0 6.4 0.00 0.00 0.00 88 1022.5
20260507055037 11 299 1.6 6.4 0.00 0.00 0.00 87 1022.6
20260507054556 11 302 1.6 6.4 0.00 0.00 0.00 88 1022.6
20260507054039 11 331 3.2 6.4 0.00 0.00 0.00 89 1022.5
20260507053541 11 348 1.6 4.8 0.00 0.00 0.00 90 1022.6
20260507052537 11 351 0.0 6.4 0.00 0.00 0.00 90 1022.5
20260507052037 11 351 0.0 6.4 0.00 0.00 0.00 89 1022.5
20260507051543 11 360 0.0 6.4 0.00 0.00 0.00 88 1022.4
20260507051036 11 360 1.6 6.4 0.00 0.00 0.00 88 1022.5
20260507050539 11 360 0.0 4.8 0.00 0.00 0.00 88 1022.5
20260507050046 12 360 1.6 4.8 0.00 0.00 0.00 88 1022.5
20260507045536 12 360 0.0 0.0 0.00 0.00 0.00 88 1022.4
20260507045036 12 360 0.0 0.0 0.00 0.00 0.00 88 1022.4
20260507044539 12 360 0.0 0.0 0.00 0.00 0.00 88 1022.5
20260507044036 12 360 0.0 0.0 0.00 0.00 0.00 87 1022.5
20260507043535 12 360 0.0 0.0 0.00 0.00 0.00 87 1022.5
20260507042535 12 360 0.0 0.0 0.00 0.00 0.00 87 1022.4
20260507042034 12 360 0.0 0.0 0.00 0.00 0.00 87 1022.4
20260507041534 12 360 0.0 0.0 0.00 0.00 0.00 87 1022.5
20260507041036 12 360 0.0 0.0 0.00 0.00 0.00 87 1022.5
20260507040534 12 360 0.0 0.0 0.00 0.00 0.00 86 1022.3
20260507040039 12 360 0.0 0.0 0.00 0.00 0.00 87 1022.4
20260507035533 12 360 0.0 0.0 0.00 0.00 0.00 87 1022.2
20260507035033 12 360 0.0 0.0 0.00 0.00 0.00 87 1022.1
20260507034533 12 360 0.0 0.0 0.00 0.00 0.00 87 1022.3
20260507034033 12 360 0.0 0.0 0.00 0.00 0.00 88 1022.1
20260507033532 12 360 0.0 0.0 0.00 0.00 0.00 88 1022.1
20260507032530 12 360 0.0 1.6 0.00 0.00 0.00 88 1022.1
20260507032031 12 360 0.0 1.6 0.00 0.00 0.00 87 1021.9
20260507031532 12 360 0.0 1.6 0.00 0.00 0.00 87 1021.9
20260507031031 12 360 0.0 1.6 0.00 0.00 0.00 87 1021.8
20260507030531 12 360 0.0 3.2 0.00 0.00 0.00 87 1021.8
20260507030032 12 360 0.0 3.2 0.00 0.00 0.00 86 1021.8
20260507025530 12 360 0.0 1.6 0.00 0.00 0.00 87 1021.8
20260507025032 12 360 0.0 3.2 0.00 0.00 0.00 86 1021.8
20260507024535 12 360 0.0 3.2 0.00 0.00 0.00 86 1021.7
20260507024030 12 360 0.0 3.2 0.00 0.00 0.00 87 1021.7
20260507023531 12 360 0.0 4.8 0.00 0.00 0.00 86 1021.7
20260507022532 12 360 0.0 4.8 0.00 0.00 0.00 87 1021.7
20260507022033 12 360 1.6 4.8 0.00 0.00 0.00 86 1021.7
20260507021536 12 360 0.0 3.2 0.00 0.00 0.00 86 1021.8
20260507021031 12 360 0.0 4.8 0.00 0.00 0.00 86 1021.7
20260507020532 12 360 1.6 4.8 0.00 0.00 0.00 86 1021.7
20260507020032 12 360 0.0 4.8 0.00 0.00 0.00 86 1021.7
20260507015531 12 360 1.6 6.4 0.00 0.00 0.00 86 1021.7
20260507015031 12 360 1.6 4.8 0.00 0.00 0.00 86 1021.6
20260507014536 12 360 0.0 4.8 0.00 0.00 0.00 85 1021.6
20260507014032 12 360 1.6 4.8 0.00 0.00 0.00 85 1021.7
20260507013531 12 360 0.0 3.2 0.00 0.00 0.00 86 1021.5
20260507012528 12 360 1.6 6.4 0.00 0.00 0.00 85 1021.6
20260507012032 12 360 1.6 6.4 0.00 0.00 0.00 85 1021.5
20260507011531 12 360 1.6 9.7 0.00 0.00 0.00 85 1021.5
20260507011028 12 360 3.2 9.7 0.00 0.00 0.00 85 1021.5
20260507010528 12 360 1.6 6.4 0.00 0.00 0.00 85 1021.5
20260507010037 12 360 3.2 6.4 0.00 0.00 0.00 84 1021.6
20260507005531 12 360 3.2 6.4 0.00 0.00 0.00 83 1021.5
20260507005027 12 355 1.6 6.4 0.00 0.00 0.00 83 1021.5
20260507004528 13 355 3.2 8.0 0.00 0.00 0.00 83 1021.5
20260507004028 13 355 3.2 8.0 0.00 0.00 0.00 83 1021.6
20260507003528 12 355 1.6 8.0 0.00 0.00 0.00 83 1021.6
20260507002527 12 348 3.2 8.0 0.00 0.00 0.00 83 1021.7
20260507002027 13 350 1.6 6.4 0.00 0.00 0.00 82 1021.6
20260507001542 13 355 1.6 9.7 0.00 0.00 0.00 83 1021.7
20260507001027 13 355 4.8 9.7 0.00 0.00 0.00 83 1021.7
20260507000527 13 334 0.0 9.7 0.00 0.00 0.00 82 1021.7
20260507000032 13 329 4.8 9.7 0.00 0.00 0.00 83 1021.7
20260506235526 13 334 3.2 8.0 0.00 0.00 0.00 84 1021.7
20260506235028 12 338 1.6 8.0 0.00 0.00 0.00 83 1021.6
20260506234527 13 331 3.2 9.7 0.00 0.00 0.00 83 1021.7
20260506234027 13 324 3.2 9.7 0.00 0.00 0.00 83 1021.7
20260506233526 13 320 6.4 14.5 0.00 0.00 0.00 83 1021.6
20260506232526 13 323 6.4 14.5 0.00 0.00 0.00 82 1021.7
20260506232026 13 294 8.0 12.9 0.00 0.00 0.00 82 1021.7
20260506231525 13 263 1.6 11.3 0.00 0.00 0.00 82 1021.7
20260506231024 13 229 6.4 9.7 0.00 0.00 0.00 82 1021.7
20260506230524 13 215 1.6 9.7 0.00 0.00 0.00 84 1021.7
20260506230028 13 217 3.2 8.0 0.00 0.00 0.00 83 1021.7
20260506225523 13 221 0.0 4.8 0.00 0.00 0.00 84 1021.6
20260506225023 13 222 1.6 8.0 0.00 0.00 0.00 83 1021.6
20260506224523 13 223 0.0 4.8 0.00 0.00 0.00 84 1021.7
20260506224023 13 223 0.0 6.4 0.00 0.00 0.00 85 1021.8
20260506223622 13 225 1.6 6.4 0.00 0.00 0.00 84 1021.8
20260506222520 12 224 3.2 8.0 0.00 0.00 0.00 87 1021.9
20260506222020 12 212 0.0 6.4 0.00 0.00 0.00 88 1022.0
20260506221519 12 212 0.0 6.4 0.00 0.00 0.00 87 1022.0
20260506221019 12 212 0.0 4.8 0.00 0.00 0.00 88 1022.0
20260506220518 12 212 1.6 8.0 0.00 0.00 0.00 87 1022.0
20260506220018 12 212 1.6 9.7 0.00 0.00 0.00 87 1022.0
20260506215519 12 212 3.2 9.7 0.00 0.00 0.00 88 1022.0
20260506215047 12 211 3.2 6.4 0.00 0.00 0.00 88 1022.0
20260506214517 12 210 1.6 6.4 0.00 0.00 0.00 88 1022.0
20260506214017 12 207 1.6 4.8 0.00 0.00 0.00 89 1022.0
20260506213516 12 207 0.0 4.8 0.00 0.00 0.00 89 1022.0
20260506212516 12 206 1.6 8.0 0.00 0.00 0.00 90 1022.0
20260506212016 12 238 1.6 6.4 0.00 0.00 0.00 90 1022.0
20260506211526 12 244 1.6 6.4 0.00 0.00 0.00 90 1022.1
20260506211015 12 245 0.0 8.0 0.00 0.00 0.00 91 1022.1
20260506210515 12 246 1.6 8.0 0.00 0.00 0.00 91 1022.1
20260506210029 12 253 0.0 6.4 0.00 0.00 0.00 91 1022.1
20260506205515 12 253 1.6 6.4 0.00 0.00 0.00 92 1022.0
20260506205015 11 261 0.0 6.4 0.00 0.00 0.00 92 1022.1
20260506204521 12 262 1.6 6.4 0.00 0.00 0.00 92 1022.0
20260506204013 12 262 3.2 9.7 0.00 0.00 0.00 91 1021.9
20260506203513 12 261 4.8 9.7 0.00 0.00 0.00 92 1022.0
20260506202513 11 198 3.2 9.7 0.00 0.00 0.00 92 1021.9
20260506202012 11 180 1.6 9.7 0.00 0.00 0.00 92 1022.0
20260506201513 11 192 4.8 9.7 0.00 0.00 0.00 92 1021.9
20260506201012 11 187 1.6 9.7 0.00 0.00 0.00 92 1021.9
20260506200511 11 214 3.2 8.0 0.00 0.00 0.00 92 1021.9
20260506200012 11 186 3.2 8.0 0.00 0.00 0.00 92 1021.8
20260506195511 11 221 1.6 6.4 0.00 0.00 0.00 92 1021.8
20260506195016 11 235 3.2 11.3 0.00 0.00 0.00 92 1021.8
20260506194511 11 242 3.2 11.3 0.00 0.00 0.00 92 1021.8
20260506194015 11 242 1.6 6.4 0.00 0.00 0.00 92 1021.8
20260506193511 11 242 1.6 8.0 0.00 0.00 0.00 92 1021.8
20260506192612 11 251 4.8 8.0 0.00 0.00 0.00 93 1021.8
20260506192009 11 251 1.6 9.7 0.00 0.00 0.00 93 1021.8
20260506191509 11 270 4.8 9.7 0.00 0.00 0.00 93 1021.9
20260506191010 11 296 3.2 8.0 0.00 0.00 0.00 93 1021.7
20260506190508 11 305 3.2 8.0 0.00 0.00 0.00 93 1021.8
20260506190009 11 286 3.2 11.3 0.00 0.00 0.00 93 1021.8
20260506185508 11 280 6.4 11.3 0.00 0.00 0.00 94 1021.8
20260506185007 11 286 4.8 9.7 0.00 0.00 0.00 94 1021.5
20260506184507 11 260 4.8 6.4 0.00 0.00 0.00 94 1021.4
20260506184008 11 247 1.6 6.4 0.00 0.00 0.00 93 1021.4
20260506183507 11 246 0.0 8.0 0.00 0.00 0.00 94 1021.4
20260506182510 11 252 1.6 6.4 0.00 0.00 0.00 94 1021.5
20260506182014 11 252 3.2 6.4 0.00 0.00 0.00 94 1021.5
20260506181526 11 251 3.2 6.4 0.00 0.00 0.00 94 1021.6
20260506181010 11 254 1.6 11.3 0.00 0.00 0.00 94 1021.6
20260506180511 11 252 4.8 11.3 0.00 0.00 0.00 94 1021.6
20260506180009 11 269 3.2 11.3 0.00 0.00 0.00 95 1021.5
20260506175511 11 258 3.2 11.3 0.00 0.00 0.00 95 1021.6
20260506175007 11 260 1.6 12.9 0.00 0.00 0.00 95 1021.6
20260506174508 11 338 3.2 12.9 0.00 0.00 0.00 95 1021.6
20260506174009 11 280 3.2 11.3 0.00 0.00 0.00 95 1021.5
20260506173512 11 275 4.8 11.3 0.00 0.00 0.00 95 1021.5
20260506172503 11 257 3.2 11.3 0.00 0.00 0.00 96 1021.4
20260506172005 11 247 4.8 11.3 0.00 0.00 0.00 96 1021.4
20260506171506 11 236 3.2 11.3 0.00 0.00 0.00 95 1021.4
20260506171003 11 234 4.8 9.7 0.00 0.00 0.00 96 1021.4
20260506170603 11 228 4.8 8.0 0.00 0.00 0.00 95 1021.3
20260506170001 11 227 0.0 4.8 0.00 0.00 0.00 96 1021.1
20260506165504 11 227 3.2 4.8 0.00 0.00 0.00 96 1021.1
20260506165002 11 227 0.0 4.8 0.00 0.00 0.00 96 1021.0
20260506164502 11 227 0.0 4.8 0.00 0.00 0.00 96 1021.1
20260506164001 11 227 1.6 3.2 0.00 0.00 0.00 96 1021.1
20260506163600 11 227 0.0 4.8 0.00 0.00 0.00 96 1021.0
20260506162557 10 227 3.2 8.0 0.00 0.00 0.00 96 1021.2
20260506162057 11 227 3.2 8.0 0.00 0.00 0.00 96 1021.3
20260506161557 10 226 3.2 8.0 0.00 0.00 0.00 96 1021.2
20260506161056 10 226 3.2 8.0 0.00 0.00 0.00 96 1021.3
20260506160556 11 225 4.8 8.0 0.00 0.00 0.00 96 1021.2
20260506160057 11 222 3.2 6.4 0.00 0.00 0.00 97 1021.3
20260506155558 10 221 1.6 6.4 0.00 0.00 0.00 96 1021.1
20260506155059 10 221 3.2 6.4 0.00 0.00 0.00 96 1021.0
20260506154611 10 221 1.6 6.4 0.00 0.00 0.00 96 1020.8
20260506154054 10 221 1.6 4.8 0.00 0.00 0.00 97 1021.0
20260506153554 10 221 0.0 8.0 0.00 0.00 0.00 96 1021.2
20260506152555 10 219 1.6 8.0 0.00 0.00 0.00 97 1021.3
20260506152057 10 219 1.6 8.0 0.00 0.00 0.00 96 1021.1
20260506151555 11 218 3.2 8.0 0.00 0.00 0.00 96 1021.0
20260506151053 11 217 4.8 8.0 0.00 0.00 0.00 97 1021.1
20260506150552 10 210 1.6 6.4 0.00 0.00 0.00 97 1020.7
20260506150054 10 210 3.2 6.4 0.00 0.00 0.00 97 1020.7
20260506145552 10 210 3.2 6.4 0.00 0.00 0.00 96 1020.5
20260506145052 10 210 1.6 4.8 0.00 0.00 0.00 97 1020.5
20260506144556 10 210 1.6 4.8 0.00 0.00 0.00 97 1020.1
20260506144052 10 210 1.6 6.4 0.00 0.00 0.00 96 1020.5
20260506143549 10 210 1.6 6.4 0.00 0.00 0.00 96 1020.7